FW7858 Weather Reports


Display with metric or nautical units.
time (UTC)temp
F
wind
direction
speed
MPH
gust
MPH
rain 1hr
in
rain 24hr
in
rain mn
in
humidity
%
barometer
mb
20260509221046 54 88 3.0 11.0 0.00 0.16 0.13 42 1011.9
20260509220542 55 339 3.0 11.0 0.00 0.16 0.13 41 1011.8
20260509220042 55 65 3.0 9.0 0.00 0.16 0.13 41 1011.9
20260509215541 55 11 4.0 11.0 0.00 0.16 0.13 40 1011.7
20260509215042 54 344 2.0 12.0 0.00 0.16 0.13 43 1011.6
20260509214540 54 5 3.0 12.0 0.00 0.16 0.13 43 1011.7
20260509214042 54 67 3.0 6.0 0.00 0.16 0.13 41 1011.7
20260509213540 54 5 2.0 8.0 0.00 0.16 0.13 40 1011.7
20260509213039 55 46 4.0 10.0 0.00 0.16 0.13 40 1011.6
20260509212539 55 355 4.0 10.0 0.00 0.16 0.13 43 1011.7
20260509212043 54 178 1.0 11.0 0.00 0.16 0.13 44 1011.7
20260509211538 54 68 3.0 11.0 0.00 0.16 0.13 42 1011.7
20260509211038 55 159 3.0 11.0 0.00 0.16 0.13 43 1011.7
20260509210537 56 47 1.0 9.0 0.00 0.16 0.13 46 1011.5
20260509210043 56 121 3.0 9.0 0.00 0.16 0.13 44 1011.6
20260509205536 56 310 3.0 10.0 0.00 0.16 0.13 42 1011.6
20260509205034 56 96 3.0 16.0 0.00 0.16 0.13 46 1011.7
20260509204535 56 13 4.0 16.0 0.00 0.16 0.13 45 1011.5
20260509204033 56 44 4.0 13.0 0.00 0.16 0.13 45 1011.6
20260509203531 55 271 3.0 13.0 0.00 0.16 0.13 47 1011.4
20260509203039 55 290 3.0 12.0 0.00 0.16 0.13 47 1011.5
20260509202531 54 342 3.0 12.0 0.00 0.16 0.13 47 1011.5
20260509202035 54 42 4.0 13.0 0.00 0.16 0.13 44 1011.4
20260509201530 54 216 1.0 10.0 0.00 0.16 0.13 46 1011.6
20260509201029 55 313 3.0 13.0 0.00 0.16 0.13 45 1011.5
20260509200529 55 62 3.0 16.0 0.00 0.16 0.13 43 1011.5
20260509200028 55 56 2.0 16.0 0.00 0.16 0.13 47 1011.4
20260509195527 55 69 2.0 9.0 0.00 0.16 0.13 50 1011.3
20260509195031 55 334 3.0 12.0 0.00 0.16 0.13 47 1011.4
20260509194527 55 333 3.0 8.0 0.00 0.16 0.13 48 1011.4
20260509194026 55 104 2.0 14.0 0.00 0.16 0.13 51 1011.4
20260509193525 54 68 4.0 14.0 0.00 0.16 0.13 51 1011.4
20260509193026 54 72 3.0 14.0 0.00 0.16 0.13 50 1011.3
20260509192523 54 67 3.0 11.0 0.00 0.16 0.13 49 1011.3
20260509192024 54 311 2.0 10.0 0.00 0.16 0.13 52 1011.2
20260509191524 54 86 2.0 11.0 0.00 0.16 0.13 54 1011.3
20260509191021 54 85 4.0 11.0 0.00 0.16 0.13 47 1011.2
20260509190520 54 66 3.0 10.0 0.00 0.16 0.13 51 1011.3
20260509190019 54 341 3.0 10.0 0.00 0.16 0.13 50 1011.3
20260509185520 53 12 3.0 13.0 0.00 0.16 0.13 50 1011.3
20260509185018 53 50 6.0 13.0 0.00 0.16 0.13 48 1011.3
20260509184526 53 5 3.0 13.0 0.00 0.16 0.13 50 1011.2
20260509184015 53 77 3.0 13.0 0.00 0.16 0.13 53 1011.2
20260509183514 53 304 2.0 9.0 0.00 0.16 0.13 54 1011.3
20260509183022 53 22 4.0 9.0 0.00 0.16 0.13 53 1011.2
20260509182512 52 175 2.0 11.0 0.00 0.16 0.13 56 1011.2
20260509182016 52 71 5.0 11.0 0.00 0.16 0.13 51 1011.2
20260509181517 52 67 5.0 13.0 0.00 0.16 0.13 51 1011.2
20260509181011 52 51 4.0 9.0 0.00 0.16 0.13 56 1011.4
20260509180510 51 15 2.0 10.0 0.00 0.16 0.13 55 1011.3
20260509180016 51 72 4.0 10.0 0.00 0.16 0.13 54 1011.3
20260509175517 51 42 4.0 11.0 0.00 0.16 0.13 54 1011.3
20260509175006 51 5 5.0 11.0 0.00 0.16 0.13 57 1011.3
20260509174506 51 88 2.0 9.0 0.00 0.16 0.13 56 1011.2
20260509174006 51 12 3.0 9.0 0.00 0.16 0.13 55 1011.2
20260509173508 50 340 3.0 9.0 0.00 0.16 0.13 56 1011.1
20260509173103 50 150 3.0 10.0 0.00 0.16 0.13 56 1011.3
20260509172504 50 90 3.0 13.0 0.00 0.16 0.13 55 1011.0
20260509172003 50 63 4.0 10.0 0.00 0.16 0.13 55 1011.0
20260509171502 50 53 3.0 10.0 0.00 0.16 0.13 57 1011.1
20260509171001 50 51 2.0 10.0 0.00 0.16 0.13 56 1010.9
20260509170600 50 360 3.0 11.0 0.00 0.16 0.13 58 1010.8
20260509170105 49 345 2.0 11.0 0.00 0.16 0.13 57 1010.8
20260509165602 49 36 2.0 9.0 0.00 0.16 0.13 57 1010.8
20260509165057 50 65 3.0 10.0 0.00 0.16 0.13 58 1010.7
20260509164556 50 48 1.0 7.0 0.00 0.16 0.13 61 1010.7
20260509164100 49 191 2.0 9.0 0.00 0.16 0.13 61 1010.6
20260509163556 48 38 3.0 11.0 0.00 0.16 0.13 58 1010.5
20260509163103 48 49 4.0 12.0 0.00 0.16 0.13 61 1010.5
20260509162556 47 51 4.0 15.0 0.00 0.16 0.13 62 1010.4
20260509162054 47 69 8.0 15.0 0.00 0.16 0.13 59 1010.4
20260509161556 47 67 4.0 11.0 0.00 0.16 0.13 60 1010.4
20260509161152 47 71 4.0 13.0 0.00 0.16 0.13 60 1010.4
20260509160551 47 360 4.0 19.0 0.00 0.16 0.13 60 1010.3
20260509160052 47 360 4.0 19.0 0.00 0.16 0.13 60 1010.3
20260509155552 46 360 6.0 14.0 0.00 0.16 0.13 62 1010.1
20260509155054 46 360 8.0 14.0 0.00 0.16 0.13 60 1010.2
20260509154602 46 360 6.0 17.0 0.00 0.16 0.13 60 1010.2
20260509154050 46 360 7.0 17.0 0.00 0.16 0.13 61 1009.9
20260509153548 46 360 8.0 15.0 0.00 0.16 0.13 62 1009.8
20260509153048 45 360 6.0 16.0 0.00 0.16 0.13 62 1009.7
20260509152548 45 360 7.0 14.0 0.00 0.16 0.13 62 1009.7
20260509152048 46 360 7.0 16.0 0.00 0.16 0.13 62 1009.6
20260509151549 46 360 6.0 13.0 0.00 0.16 0.13 65 1009.6
20260509151045 45 360 6.0 13.0 0.00 0.16 0.13 63 1009.6
20260509150546 45 360 6.0 16.0 0.00 0.16 0.13 63 1009.4
20260509150057 45 360 8.0 18.0 0.00 0.16 0.13 63 1009.4
20260509145547 45 360 7.0 18.0 0.00 0.16 0.13 62 1009.3
20260509145044 45 360 7.0 16.0 0.00 0.16 0.13 61 1009.4
20260509144547 45 360 4.0 15.0 0.00 0.16 0.13 64 1009.3
20260509144045 45 360 6.0 12.0 0.00 0.16 0.13 66 1009.3
20260509143542 45 360 6.0 12.0 0.00 0.16 0.13 66 1009.2
20260509143048 45 360 6.0 15.0 0.00 0.16 0.13 67 1009.2
20260509142542 44 360 7.0 15.0 0.00 0.16 0.13 65 1009.0
20260509142040 45 360 7.0 17.0 0.00 0.16 0.13 65 1009.0
20260509141540 44 360 6.0 11.0 0.00 0.16 0.13 67 1008.9
20260509141038 44 360 6.0 11.0 0.00 0.16 0.13 67 1008.8
20260509140538 44 360 5.0 15.0 0.00 0.16 0.13 67 1008.9
20260509140041 44 360 5.0 15.0 0.00 0.16 0.13 67 1008.8
20260509135541 44 360 3.0 10.0 0.00 0.16 0.13 70 1008.6
20260509135039 43 360 4.0 13.0 0.00 0.16 0.13 70 1008.6
20260509134536 43 360 6.0 13.0 0.00 0.16 0.13 68 1008.4
20260509134035 43 360 5.0 12.0 0.00 0.16 0.13 70 1008.4
20260509133536 43 360 7.0 13.0 0.00 0.16 0.13 70 1008.3
20260509133033 43 360 5.0 13.0 0.00 0.16 0.13 72 1008.2
20260509132532 42 360 4.0 9.0 0.00 0.16 0.13 74 1008.2
20260509132033 42 360 3.0 10.0 0.00 0.16 0.13 76 1008.2
20260509131530 42 360 5.0 10.0 0.00 0.16 0.13 78 1008.1
20260509131028 42 360 2.0 6.0 0.00 0.16 0.13 80 1007.9
20260509130529 41 360 3.0 8.0 0.00 0.16 0.13 81 1007.8
20260509130029 41 360 2.0 8.0 0.00 0.16 0.13 83 1007.7
20260509125533 41 360 3.0 8.0 0.00 0.16 0.13 85 1007.6
20260509125024 40 360 4.0 8.0 0.00 0.16 0.13 87 1007.5
20260509124532 40 360 3.0 8.0 0.00 0.16 0.13 89 1007.5
20260509124021 40 360 2.0 5.0 0.00 0.16 0.13 91 1007.4
20260509123521 39 360 2.0 5.0 0.00 0.16 0.13 91 1007.3
20260509123020 39 360 2.0 5.0 0.00 0.16 0.13 92 1007.2
20260509122519 39 360 1.0 4.0 0.00 0.16 0.13 92 1007.1
20260509122020 39 360 0.0 4.0 0.00 0.16 0.13 93 1007.1
20260509121528 39 360 1.0 4.0 0.00 0.16 0.13 93 1007.0
20260509121018 39 360 1.0 5.0 0.00 0.16 0.13 93 1006.9
20260509120517 39 360 1.0 5.0 0.00 0.16 0.13 93 1006.8
20260509120017 39 360 2.0 5.0 0.00 0.16 0.13 93 1006.7
20260509115516 39 360 1.0 5.0 0.00 0.16 0.13 94 1006.7
20260509115015 39 360 1.0 4.0 0.00 0.16 0.13 94 1006.6
20260509114533 39 360 1.0 4.0 0.00 0.16 0.13 94 1006.5
20260509114013 39 360 1.0 5.0 0.00 0.16 0.13 94 1006.5
20260509113513 40 360 1.0 5.0 0.00 0.16 0.13 94 1006.2
20260509113013 40 360 1.0 5.0 0.00 0.16 0.13 94 1006.2
20260509112510 39 360 1.0 4.0 0.00 0.16 0.13 94 1006.0
20260509112016 39 360 1.0 4.0 0.00 0.16 0.13 94 1005.8
20260509111508 39 360 1.0 3.0 0.00 0.16 0.13 94 1005.8
20260509111007 39 360 1.0 2.0 0.00 0.16 0.13 94 1005.7
20260509110513 39 360 0.0 3.0 0.00 0.16 0.13 94 1005.6
20260509110006 39 360 0.0 3.0 0.00 0.16 0.13 93 1005.6
20260509105505 39 360 0.0 2.0 0.00 0.16 0.13 93 1005.5
20260509105008 39 360 0.0 0.0 0.00 0.16 0.13 93 1005.4
20260509104503 39 360 0.0 0.0 0.00 0.16 0.13 93 1005.3
20260509104101 39 360 0.0 0.0 0.00 0.16 0.13 93 1005.2
20260509103500 39 360 0.0 1.0 0.00 0.16 0.13 92 1005.0
20260509103100 39 360 0.0 0.0 0.00 0.16 0.13 92 1005.0
20260509102600 39 360 0.0 0.0 0.00 0.16 0.13 92 1005.0
20260509102059 39 360 0.0 0.0 0.00 0.16 0.13 92 1005.0
20260509101557 40 360 0.0 0.0 0.00 0.16 0.13 92 1004.9
20260509101058 40 360 0.0 0.0 0.00 0.16 0.13 92 1004.9
20260509100554 40 360 0.0 0.0 0.00 0.16 0.13 92 1004.8
20260509100053 40 360 0.0 0.0 0.00 0.16 0.13 92 1004.7
20260509095553 40 360 0.0 0.0 0.01 0.16 0.13 92 1004.6
20260509095053 40 360 0.0 0.0 0.01 0.16 0.13 91 1004.6
20260509094552 40 360 0.0 0.0 0.01 0.16 0.13 91 1004.5
20260509094049 41 360 0.0 0.0 0.01 0.16 0.13 91 1004.5
20260509093551 41 360 0.0 0.0 0.01 0.16 0.13 91 1004.4
20260509093047 41 360 0.0 1.0 0.01 0.16 0.13 91 1004.4
20260509092547 41 360 0.0 1.0 0.01 0.16 0.13 91 1004.3
20260509092045 42 360 0.0 0.0 0.01 0.16 0.13 91 1004.2
20260509091550 42 360 0.0 2.0 0.01 0.16 0.13 91 1004.1
20260509091043 42 360 0.0 3.0 0.01 0.16 0.13 91 1004.0
20260509090543 42 360 1.0 5.0 0.01 0.16 0.13 91 1004.0
20260509090057 42 360 1.0 5.0 0.01 0.16 0.13 91 1004.0
20260509085544 42 360 2.0 10.0 0.00 0.15 0.12 92 1003.9
20260509085039 42 360 2.0 10.0 0.00 0.15 0.12 92 1003.7
20260509084544 43 360 2.0 5.0 0.00 0.15 0.12 92 1003.6
20260509084037 43 360 1.0 5.0 0.00 0.15 0.12 93 1003.5
20260509083535 43 360 2.0 5.0 0.00 0.15 0.12 93 1003.4
20260509083046 43 360 1.0 4.0 0.00 0.15 0.12 93 1003.2
20260509082533 43 360 2.0 4.0 0.00 0.15 0.12 93 1003.1
20260509082034 43 360 1.0 3.0 0.00 0.15 0.12 93 1003.1
20260509081536 44 360 1.0 3.0 0.00 0.15 0.12 94 1003.0
20260509081035 44 360 0.0 3.0 0.00 0.15 0.12 94 1002.9
20260509080529 44 360 0.0 3.0 0.00 0.15 0.12 94 1002.8
20260509080033 44 360 0.0 3.0 0.00 0.15 0.12 94 1002.8
20260509075527 44 360 0.0 0.0 0.00 0.15 0.12 94 1002.8
20260509075027 44 360 0.0 1.0 0.00 0.15 0.12 94 1002.7
20260509074534 44 360 0.0 1.0 0.00 0.15 0.12 94 1002.6
20260509074025 45 360 0.0 1.0 0.00 0.15 0.12 94 1002.4
20260509073525 45 360 0.0 0.0 0.00 0.15 0.12 93 1002.6
20260509073024 45 360 0.0 0.0 0.00 0.15 0.12 94 1002.5
20260509072524 45 360 0.0 0.0 0.00 0.15 0.12 93 1002.4
20260509072024 45 360 0.0 0.0 0.00 0.15 0.12 93 1002.3
20260509071524 45 360 0.0 0.0 0.00 0.15 0.12 93 1002.3
20260509071022 45 360 0.0 0.0 0.00 0.15 0.12 93 1002.3
20260509070522 45 360 0.0 0.0 0.00 0.15 0.12 93 1002.3
20260509070029 45 360 0.0 1.0 0.01 0.15 0.12 93 1002.3
20260509065522 45 360 0.0 1.0 0.01 0.15 0.12 93 1002.2
20260509065020 45 360 0.0 1.0 0.02 0.15 0.12 93 1002.3
20260509064520 45 360 0.0 1.0 0.02 0.15 0.12 93 1002.3
20260509064020 45 360 0.0 1.0 0.04 0.15 0.12 93 1002.2
20260509063518 45 360 0.0 2.0 0.05 0.15 0.12 93 1002.3
20260509063018 46 360 0.0 2.0 0.07 0.15 0.12 93 1002.3
20260509062518 46 360 1.0 2.0 0.08 0.15 0.12 93 1002.4
20260509062016 46 360 0.0 1.0 0.09 0.15 0.12 92 1002.3
20260509061517 46 360 0.0 1.0 0.09 0.15 0.12 92 1002.5
20260509061015 46 360 0.0 2.0 0.10 0.15 0.12 92 1002.5
20260509060513 46 360 0.0 2.0 0.11 0.15 0.12 92 1002.6
20260509060012 46 360 1.0 3.0 0.11 0.14 0.11 92 1002.6
20260509055512 46 360 0.0 3.0 0.12 0.14 0.11 91 1002.7
20260509055011 46 360 1.0 4.0 0.11 0.13 0.10 91 1002.8
20260509054511 46 360 1.0 9.0 0.11 0.12 0.09 91 1002.8
20260509054012 46 360 3.0 9.0 0.10 0.11 0.08 90 1002.9
20260509053508 47 360 3.0 6.0 0.09 0.10 0.07 90 1003.2
20260509053014 47 360 1.0 11.0 0.08 0.08 0.05 90 1003.3
20260509052510 47 360 3.0 11.0 0.07 0.07 0.04 89 1003.3
20260509052004 47 360 4.0 11.0 0.06 0.06 0.03 90 1003.2
20260509051507 48 360 4.0 11.0 0.05 0.05 0.02 89 1003.1
20260509051003 48 360 4.0 10.0 0.05 0.05 0.02 89 1003.2
20260509050604 48 360 4.0 10.0 0.04 0.04 0.01 88 1003.2
20260509050104 49 360 4.0 10.0 0.03 0.03 0.00 87 1003.3
20260509045558 49 360 3.0 9.0 0.02 0.02 0.02 87 1003.4
20260509045058 49 360 3.0 11.0 0.02 0.02 0.02 86 1003.5
20260509044606 50 360 4.0 11.0 0.01 0.01 0.01 85 1003.6
20260509044058 50 360 2.0 6.0 0.01 0.01 0.01 84 1003.6
20260509043601 51 360 1.0 8.0 0.01 0.01 0.01 82 1003.6
20260509043103 52 360 2.0 8.0 0.00 0.00 0.00 80 1003.5
20260509042557 53 32 3.0 8.0 0.00 0.00 0.00 77 1003.3
20260509042057 53 12 3.0 11.0 0.00 0.00 0.00 74 1003.2
20260509041557 54 298 2.0 8.0 0.00 0.00 0.00 71 1003.0
20260509041057 54 267 2.0 12.0 0.00 0.00 0.00 70 1003.2
20260509040600 55 288 4.0 12.0 0.00 0.00 0.00 67 1003.0
20260509040059 55 348 2.0 16.0 0.00 0.00 0.00 64 1003.0
20260509035556 55 314 2.0 22.0 0.00 0.00 0.00 63 1002.8
20260509035055 56 308 11.0 22.0 0.00 0.00 0.00 64 1002.5
20260509034605 55 292 15.0 22.0 0.00 0.00 0.00 62 1002.4
20260509034054 53 360 3.0 19.0 0.00 0.00 0.00 59 1002.2
20260509033556 52 297 1.0 4.0 0.00 0.00 0.00 58 1001.7
20260509033107 52 338 0.0 2.0 0.00 0.00 0.00 57 1001.5
20260509032554 52 360 1.0 2.0 0.00 0.00 0.00 56 1001.1
20260509032057 53 360 1.0 2.0 0.00 0.00 0.00 57 1000.8
20260509031554 54 340 1.0 2.0 0.00 0.00 0.00 57 1000.7
20260509031053 55 342 0.0 1.0 0.00 0.00 0.00 53 1000.7
20260509030553 55 342 0.0 1.0 0.00 0.00 0.00 51 1000.5
20260509030052 55 342 0.0 0.0 0.00 0.00 0.00 50 1000.6
20260509025550 55 342 0.0 1.0 0.00 0.00 0.00 50 1000.7
20260509025050 55 341 0.0 1.0 0.00 0.00 0.00 49 1000.8
20260509024559 55 341 0.0 2.0 0.00 0.00 0.00 49 1000.8
20260509024050 55 341 0.0 0.0 0.00 0.00 0.00 50 1001.3
20260509023548 55 341 0.0 0.0 0.00 0.00 0.00 48 1001.3
20260509023048 55 341 0.0 0.0 0.00 0.00 0.00 47 1001.2
20260509022549 56 341 0.0 0.0 0.00 0.00 0.00 47 1001.3
20260509022049 56 341 0.0 0.0 0.00 0.00 0.00 46 1001.4
20260509021549 57 341 0.0 1.0 0.00 0.00 0.00 46 1001.3
20260509021051 58 340 0.0 1.0 0.00 0.00 0.00 46 1001.3
20260509020547 58 342 0.0 0.0 0.00 0.00 0.00 44 1001.3
20260509020049 59 342 0.0 0.0 0.00 0.00 0.00 43 1001.4
20260509015548 59 342 0.0 0.0 0.00 0.00 0.00 43 1001.3
20260509015048 59 360 0.0 1.0 0.00 0.00 0.00 42 1001.2
20260509014547 60 342 0.0 2.0 0.00 0.00 0.00 42 1001.2
20260509014049 60 342 0.0 5.0 0.00 0.00 0.00 42 1001.1
20260509013546 60 343 0.0 2.0 0.00 0.00 0.00 41 1001.2
20260509013050 61 346 0.0 2.0 0.00 0.00 0.00 41 1001.2
20260509012545 61 338 0.0 4.0 0.00 0.00 0.00 40 1001.3
20260509012045 61 340 0.0 4.0 0.00 0.00 0.00 40 1001.3
20260509011548 62 336 0.0 5.0 0.00 0.00 0.00 40 1001.3
20260509011043 62 80 1.0 7.0 0.00 0.00 0.00 39 1001.4
20260509010545 62 346 2.0 7.0 0.00 0.00 0.00 39 1001.4
20260509010043 62 322 1.0 9.0 0.00 0.00 0.00 39 1001.5
20260509005543 62 336 3.0 9.0 0.00 0.00 0.00 38 1001.5
20260509005043 62 338 1.0 10.0 0.00 0.00 0.00 38 1001.6
20260509004553 62 324 2.0 10.0 0.00 0.00 0.00 39 1001.6
20260509004045 63 47 0.0 6.0 0.00 0.00 0.00 39 1001.6
20260509003541 63 55 1.0 6.0 0.00 0.00 0.00 38 1001.7
20260509003044 63 338 1.0 5.0 0.00 0.00 0.00 38 1001.7
20260509002544 63 348 1.0 6.0 0.00 0.00 0.00 37 1001.6
20260509002042 63 55 3.0 11.0 0.00 0.00 0.00 37 1001.6
20260509001544 63 74 3.0 10.0 0.00 0.00 0.00 37 1001.7
20260509001041 64 328 2.0 8.0 0.00 0.00 0.00 36 1001.8
20260509000540 64 315 2.0 8.0 0.00 0.00 0.00 37 1001.8
20260509000044 64 42 3.0 10.0 0.00 0.00 0.00 36 1002.0
20260508235540 64 89 2.0 10.0 0.00 0.00 0.00 36 1002.0
20260508235039 64 108 4.0 10.0 0.00 0.00 0.00 35 1001.9
20260508234539 64 355 2.0 7.0 0.00 0.00 0.00 36 1002.1
20260508234041 64 107 1.0 9.0 0.00 0.00 0.00 36 1002.1
20260508233539 64 327 3.0 9.0 0.00 0.00 0.00 35 1002.0
20260508233039 64 121 1.0 10.0 0.00 0.00 0.00 35 1002.2
20260508232538 64 67 5.0 11.0 0.00 0.00 0.00 35 1002.1
20260508232038 64 61 4.0 14.0 0.00 0.00 0.00 35 1002.2
20260508231545 64 92 2.0 10.0 0.00 0.00 0.00 36 1002.1
20260508231038 64 32 3.0 8.0 0.00 0.00 0.00 34 1002.2
20260508230538 64 297 1.0 10.0 0.00 0.00 0.00 35 1002.1
20260508230037 64 46 1.0 10.0 0.00 0.00 0.00 36 1002.0
20260508225538 65 90 3.0 8.0 0.00 0.00 0.00 34 1002.2
20260508225037 64 69 2.0 10.0 0.00 0.00 0.00 35 1002.2
20260508224559 64 15 3.0 10.0 0.00 0.00 0.00 34 1002.2
20260508224036 64 38 3.0 9.0 0.00 0.00 0.00 34 1002.2
20260508223536 64 27 3.0 10.0 0.00 0.00 0.00 33 1002.3
20260508223036 64 360 3.0 11.0 0.00 0.00 0.00 35 1002.2
20260508222535 64 5 5.0 12.0 0.00 0.00 0.00 34 1002.2
20260508222035 64 330 3.0 12.0 0.00 0.00 0.00 34 1002.3
20260508221545 65 129 3.0 11.0 0.00 0.00 0.00 34 1002.2